KLM4289 EHAM-TNCM

Flight info

Callsign KLM4289
Flight time N/A
Altitude 34000
Route BERGI L60 PENIL/N0474F360 M144 BAGSO DCT LIMRI/M082F360 DCT 51N020W 49N030W 44N040W/M082F380 34N050W 27N056W/M082F400 22N060W DCT OBIKE/N0476F400 L335 TRNKY
Aircraft MD11/H-SDE1E2E3FGHIJ2J3J4J5M1RWXY/LB1D1

Departure

Time 2026-05-06 07:17
Airport Amsterdam Airport Schiphol (EHAM)

Arrival

Time N/A
Airport Princess Juliana International Airport (TNCM)
Time Latitude Longitude Altitude Speed Heading
2026-05-06 06:47 52.31325 4.76657 5 ft 0 kts 124°
2026-05-06 07:03 52.31338 4.76623 6 ft 4 kts 112°
2026-05-06 07:03 52.31345 4.76581 8 ft 4 kts 90°
2026-05-06 07:04 52.31340 4.76540 7 ft 4 kts 59°
2026-05-06 07:04 52.31323 4.76508 7 ft 4 kts 32°
2026-05-06 07:04 52.31337 4.76525 7 ft 4 kts 38°
2026-05-06 07:04 52.31350 4.76539 7 ft 0 kts 30°
2026-05-06 07:07 52.31353 4.76542 7 ft 1 kts 30°
2026-05-06 07:08 52.31359 4.76547 6 ft 2 kts 30°
2026-05-06 07:08 52.31379 4.76567 6 ft 5 kts 30°
2026-05-06 07:08 52.31419 4.76606 5 ft 8 kts 33°
2026-05-06 07:08 52.31463 4.76654 5 ft 8 kts 31°
2026-05-06 07:09 52.31523 4.76669 5 ft 8 kts 343°
2026-05-06 07:09 52.31548 4.76607 5 ft 7 kts 283°
2026-05-06 07:09 52.31550 4.76503 5 ft 11 kts 268°
2026-05-06 07:09 52.31547 4.76363 5 ft 14 kts 268°
2026-05-06 07:10 52.31540 4.76198 5 ft 15 kts 266°
2026-05-06 07:10 52.31533 4.76043 7 ft 13 kts 266°
2026-05-06 07:10 52.31528 4.75909 5 ft 11 kts 266°
2026-05-06 07:10 52.31523 4.75792 5 ft 10 kts 266°
2026-05-06 07:11 52.31519 4.75670 5 ft 13 kts 267°
2026-05-06 07:11 52.31513 4.75507 5 ft 16 kts 266°
2026-05-06 07:11 52.31506 4.75307 5 ft 19 kts 267°
2026-05-06 07:11 52.31499 4.75072 5 ft 21 kts 267°
2026-05-06 07:12 52.31492 4.74845 5 ft 19 kts 266°
2026-05-06 07:12 52.31485 4.74644 5 ft 17 kts 266°
2026-05-06 07:12 52.31479 4.74462 5 ft 15 kts 267°
2026-05-06 07:12 52.31474 4.74303 5 ft 14 kts 267°
2026-05-06 07:13 52.31430 4.74157 5 ft 16 kts 218°
2026-05-06 07:13 52.31316 4.74127 5 ft 19 kts 182°
2026-05-06 07:13 52.31173 4.74116 5 ft 22 kts 182°
2026-05-06 07:13 52.31021 4.74103 5 ft 21 kts 183°
2026-05-06 07:14 52.30880 4.74090 5 ft 19 kts 183°
2026-05-06 07:14 52.30754 4.74079 5 ft 17 kts 183°
2026-05-06 07:14 52.30642 4.74068 5 ft 15 kts 183°
2026-05-06 07:14 52.30543 4.74059 5 ft 13 kts 183°
2026-05-06 07:15 52.30457 4.74051 5 ft 12 kts 183°
2026-05-06 07:15 52.30365 4.74041 5 ft 15 kts 187°
2026-05-06 07:15 52.30261 4.73967 5 ft 18 kts 214°
2026-05-06 07:15 52.30190 4.73827 4 ft 12 kts 258°
2026-05-06 07:16 52.30201 4.73763 4 ft 6 kts 308°
2026-05-06 07:16 52.30253 4.73739 1 ft 12 kts 358°
2026-05-06 07:16 52.30545 4.73763 2 ft 80 kts
2026-05-06 07:16 52.31341 4.73840 4 ft 147 kts
2026-05-06 07:17 52.32933 4.73978 162 ft 189 kts
2026-05-06 07:17 52.34268 4.74074 831 ft 193 kts
2026-05-06 07:17 52.35125 4.74101 1558 ft 173 kts 358°
2026-05-06 07:17 52.36281 4.73538 2523 ft 180 kts 343°
2026-05-06 07:18 52.37438 4.72747 3242 ft 184 kts 343°
2026-05-06 07:18 52.38721 4.71887 3471 ft 214 kts 340°
2026-05-06 07:18 52.40109 4.70629 3653 ft 242 kts 333°
2026-05-06 07:18 52.41614 4.69088 3901 ft 265 kts 332°
2026-05-06 07:19 52.43175 4.67475 4847 ft 266 kts 332°
2026-05-06 07:19 52.44760 4.65852 5781 ft 269 kts 331°
2026-05-06 07:19 52.46363 4.64227 6696 ft 271 kts 331°
2026-05-06 07:19 52.47985 4.62599 7502 ft 276 kts 330°
2026-05-06 07:20 52.49625 4.60957 8511 ft 278 kts 329°
2026-05-06 07:20 52.51295 4.59294 9373 ft 284 kts 329°
2026-05-06 07:20 52.53004 4.57596 10199 ft 289 kts 328°
2026-05-06 07:20 52.54788 4.55824 10399 ft 318 kts 328°
2026-05-06 07:21 52.56765 4.53861 10554 ft 345 kts 328°
2026-05-06 07:21 52.58846 4.51795 11261 ft 352 kts 328°
2026-05-06 07:21 52.60964 4.49690 11973 ft 359 kts 328°
2026-05-06 07:21 52.63114 4.47554 12733 ft 364 kts 328°
2026-05-06 07:22 52.65295 4.45385 13411 ft 369 kts 328°
2026-05-06 07:22 52.67512 4.43178 14056 ft 373 kts 328°
2026-05-06 07:22 52.69740 4.40957 14709 ft 376 kts 328°
2026-05-06 07:22 52.71981 4.38701 15353 ft 378 kts 326°
2026-05-06 07:23 52.74071 4.36069 15924 ft 380 kts 315°
2026-05-06 07:23 52.75673 4.32590 16476 ft 383 kts 298°
2026-05-06 07:23 52.76730 4.28538 17037 ft 386 kts 289°
2026-05-06 07:23 52.77557 4.24300 17679 ft 388 kts 287°
2026-05-06 07:24 52.78318 4.20074 18296 ft 390 kts 287°
2026-05-06 07:24 52.79103 4.15767 18729 ft 394 kts 287°
2026-05-06 07:24 52.79920 4.11417 19160 ft 399 kts 287°
2026-05-06 07:24 52.80764 4.07048 19652 ft 401 kts 287°
2026-05-06 07:25 52.81631 4.02633 20051 ft 406 kts 287°
2026-05-06 07:25 52.82511 3.98195 20560 ft 407 kts 287°
2026-05-06 07:25 52.83399 3.93729 21031 ft 410 kts 287°
2026-05-06 07:25 52.84292 3.89238 21524 ft 412 kts 287°
2026-05-06 07:26 52.85190 3.84711 21961 ft 416 kts 286°
2026-05-06 07:26 52.86095 3.80139 22459 ft 419 kts 286°
2026-05-06 07:26 52.87002 3.75548 22955 ft 422 kts 285°
2026-05-06 07:26 52.87917 3.70900 23359 ft 427 kts 286°
2026-05-06 07:27 52.88836 3.66221 23815 ft 429 kts 285°
2026-05-06 07:27 52.89762 3.61494 24222 ft 433 kts 286°
2026-05-06 07:27 52.90676 3.56733 24624 ft 436 kts 285°
2026-05-06 07:27 52.91608 3.51937 25109 ft 438 kts 285°
2026-05-06 07:28 52.92548 3.47131 25605 ft 439 kts 286°
2026-05-06 07:28 52.93494 3.42293 26026 ft 442 kts 285°
2026-05-06 07:28 52.95392 3.32520 26868 ft 448 kts 285°
2026-05-06 07:29 52.96345 3.27578 27283 ft 451 kts 285°
2026-05-06 07:29 52.97302 3.22594 27770 ft 452 kts 285°
2026-05-06 07:29 52.98244 3.17603 28182 ft 455 kts 284°
2026-05-06 07:29 52.99181 3.12572 28586 ft 458 kts 284°
2026-05-06 07:30 53.00114 3.07572 28979 ft 461 kts 284°
2026-05-06 07:30 53.01072 3.02468 29409 ft 463 kts 284°
2026-05-06 07:30 53.02035 2.97357 29841 ft 465 kts 284°
2026-05-06 07:30 53.03003 2.92226 30170 ft 467 kts 284°
2026-05-06 07:31 53.03976 2.87068 30563 ft 467 kts 284°
2026-05-06 07:31 53.04945 2.81922 30977 ft 466 kts 284°
2026-05-06 07:31 53.05908 2.76790 31385 ft 464 kts 285°
2026-05-06 07:31 53.06863 2.71688 31784 ft 463 kts 285°
2026-05-06 07:32 53.07804 2.66647 32160 ft 462 kts 285°
2026-05-06 07:32 53.08753 2.61546 32541 ft 461 kts 285°
2026-05-06 07:32 53.09697 2.56455 32902 ft 460 kts 285°
2026-05-06 07:32 53.10623 2.51360 33273 ft 458 kts 283°
2026-05-06 07:33 53.11316 2.46218 33688 ft 454 kts 278°
2026-05-06 07:33 53.11808 2.41049 34008 ft 453 kts 276°
2026-05-06 07:33 53.12601 2.30618 34094 ft 456 kts 275°
2026-05-06 07:34 53.13394 2.20122 34103 ft 456 kts 276°
2026-05-06 07:34 53.14223 2.09634 34104 ft 456 kts 276°
2026-05-06 07:35 53.15055 1.99203 34103 ft 456 kts 276°
2026-05-06 07:35 53.15883 1.88732 34108 ft 455 kts 276°
2026-05-06 07:36 53.16699 1.78276 34113 ft 455 kts 276°
2026-05-06 07:36 53.17504 1.67833 34105 ft 455 kts 276°
2026-05-06 07:37 53.18301 1.57361 34115 ft 455 kts 276°
2026-05-06 07:37 53.19089 1.46894 34117 ft 451 kts 276°
2026-05-06 07:38 53.19856 1.36578 34121 ft 453 kts 276°
2026-05-06 07:38 53.20622 1.26146 34122 ft 452 kts 276°
2026-05-06 07:39 53.21376 1.15764 34127 ft 451 kts 276°
2026-05-06 07:39 53.22083 1.05338 34131 ft 452 kts 275°
2026-05-06 07:40 53.22774 0.95000 34133 ft 450 kts 275°
2026-05-06 07:40 53.23487 0.84609 34131 ft 452 kts 275°
2026-05-06 07:41 53.24206 0.74183 34138 ft 451 kts 275°
2026-05-06 07:41 53.24915 0.63777 34144 ft 451 kts 275°
2026-05-06 07:42 53.25615 0.53363 34151 ft 452 kts 275°
2026-05-06 07:42 53.26307 0.42934 34148 ft 451 kts 275°
2026-05-06 07:43 53.26989 0.32507 34148 ft 451 kts 275°
2026-05-06 07:43 53.27661 0.22084 34148 ft 451 kts 275°
2026-05-06 07:44 53.28324 0.11658 34154 ft 451 kts 275°
2026-05-06 07:44 53.29036 0.01302 34154 ft 451 kts 277°
2026-05-06 07:45 53.30037 -0.09060 34168 ft 450 kts 278°
2026-05-06 07:45 53.31123 -0.19359 34167 ft 449 kts 278°
2026-05-06 07:46 53.32198 -0.29630 34166 ft 449 kts 278°
2026-05-06 07:46 53.33252 -0.39915 34168 ft 449 kts 278°
2026-05-06 07:47 53.34281 -0.50230 34173 ft 449 kts 278°
2026-05-06 07:47 53.35300 -0.60482 34172 ft 449 kts 278°
2026-05-06 07:48 53.36319 -0.70801 34176 ft 449 kts 278°
2026-05-06 07:48 53.37331 -0.81121 34180 ft 449 kts 278°
2026-05-06 07:49 53.38341 -0.91474 34190 ft 449 kts 278°
2026-05-06 07:49 53.39325 -1.01740 34193 ft 449 kts 278°
2026-05-06 07:50 53.40306 -1.12071 34197 ft 448 kts 278°
2026-05-06 07:50 53.41283 -1.22408 34198 ft 448 kts 278°
2026-05-06 07:51 53.42240 -1.32677 34201 ft 448 kts 277°
2026-05-06 07:51 53.43198 -1.43019 34202 ft 448 kts 277°
2026-05-06 07:52 53.44150 -1.53359 34209 ft 448 kts 277°
2026-05-06 07:52 53.45086 -1.63697 34209 ft 447 kts 277°
2026-05-06 07:53 53.46013 -1.74001 34216 ft 447 kts 277°
2026-05-06 07:53 53.46931 -1.84312 34213 ft 447 kts 277°
2026-05-06 07:54 53.47833 -1.94593 34212 ft 447 kts 277°
2026-05-06 07:54 53.48738 -2.04941 34212 ft 447 kts 277°
2026-05-06 07:55 53.49628 -2.15193 34212 ft 445 kts 277°
2026-05-06 07:55 53.50499 -2.25494 34211 ft 445 kts 277°
2026-05-06 07:56 53.51365 -2.35790 34213 ft 445 kts 277°
2026-05-06 07:56 53.52228 -2.46091 34212 ft 445 kts 277°
2026-05-06 07:57 53.53084 -2.56387 34217 ft 445 kts 277°
2026-05-06 07:57 53.53926 -2.66625 34216 ft 443 kts 277°
2026-05-06 07:58 53.54753 -2.76788 34220 ft 443 kts 276°
2026-05-06 07:58 53.55579 -2.87065 34224 ft 443 kts 276°
2026-05-06 07:59 53.56398 -2.97355 34224 ft 443 kts 276°
2026-05-06 07:59 53.57203 -3.07582 34225 ft 444 kts 276°
2026-05-06 08:00 53.57605 -3.12735 34427 ft 444 kts 276°
2026-05-06 08:00 53.58005 -3.17891 34649 ft 444 kts 276°
2026-05-06 08:00 53.58402 -3.23048 34853 ft 444 kts 276°
2026-05-06 08:00 53.58798 -3.28206 35047 ft 445 kts 276°
2026-05-06 08:01 53.59191 -3.33370 35234 ft 445 kts 276°
2026-05-06 08:01 53.59583 -3.38540 35411 ft 446 kts 276°
2026-05-06 08:01 53.59917 -3.42970 35570 ft 446 kts 276°
2026-05-06 08:01 53.60261 -3.47552 35719 ft 447 kts 276°
2026-05-06 08:02 53.60558 -3.51529 35848 ft 447 kts 276°
2026-05-06 08:02 53.60854 -3.55622 35980 ft 447 kts 276°
2026-05-06 08:02 53.61108 -3.59299 36144 ft 446 kts 276°
2026-05-06 08:02 53.61355 -3.62918 36188 ft 447 kts 276°
2026-05-06 08:03 53.61919 -3.73123 36212 ft 448 kts 274°
2026-05-06 08:03 53.62341 -3.83605 36212 ft 448 kts 273°
2026-05-06 08:04 53.62747 -3.94031 36211 ft 448 kts 273°
2026-05-06 08:04 53.63079 -4.02580 36204 ft 448 kts 273°
2026-05-06 08:05 53.63485 -4.13057 36203 ft 448 kts 273°
2026-05-06 08:05 53.63883 -4.23490 36205 ft 448 kts 273°
2026-05-06 08:06 53.64272 -4.33845 36200 ft 448 kts 273°
2026-05-06 08:06 53.64642 -4.44006 36195 ft 448 kts 273°
2026-05-06 08:07 53.64987 -4.53743 36193 ft 448 kts 273°
2026-05-06 08:07 53.65356 -4.64251 36205 ft 449 kts 273°
2026-05-06 08:08 53.65718 -4.74767 36201 ft 449 kts 273°
2026-05-06 08:08 53.66067 -4.85228 36203 ft 449 kts 273°
2026-05-06 08:09 53.66402 -4.95744 36198 ft 449 kts 273°
2026-05-06 08:09 53.66737 -5.06282 36196 ft 449 kts 273°